Time,TemperatureF,DewpointF,PressureIn,WindDirection,WindDirectionDegrees,WindSpeedMPH,WindSpeedGustMPH,Humidity,HourlyPrecipIn,Conditions,Clouds,dailyrainin,SolarRadiationWatts/m^2,SoftwareType,DateUTC
2013-01-08 00:03:00,40.6,28.0,30.36,SSE,154,1.0,7.0,60,0.00,,,0.00,0,weatherlink.com 1.10,2013-01-08 05:03:00,
2013-01-08 00:18:00,41.0,28.0,30.36,SSE,153,2.0,13.0,60,0.00,,,0.00,0,weatherlink.com 1.10,2013-01-08 05:18:00,
2013-01-08 00:33:00,40.9,28.0,30.36,SE,140,5.0,10.0,61,0.00,,,0.00,0,weatherlink.com 1.10,2013-01-08 05:33:00,
2013-01-08 00:48:00,40.4,29.0,30.36,SSE,148,0.0,9.0,63,0.00,,,0.00,0,weatherlink.com 1.10,2013-01-08 05:48:00,
2013-01-08 01:03:00,40.5,29.0,30.35,East,92,2.0,9.0,63,0.00,,,0.00,0,weatherlink.com 1.10,2013-01-08 06:03:00,
2013-01-08 01:18:00,40.6,29.0,30.36,East,88,5.0,9.0,64,0.00,,,0.00,0,weatherlink.com 1.10,2013-01-08 06:18:00,
2013-01-08 01:33:00,40.4,29.0,30.36,South,180,6.0,7.0,64,0.00,,,0.00,0,weatherlink.com 1.10,2013-01-08 06:33:00,
2013-01-08 01:48:00,39.8,29.0,30.36,SSE,149,5.0,9.0,66,0.00,,,0.00,0,weatherlink.com 1.10,2013-01-08 06:48:00,
2013-01-08 02:04:00,39.8,30.0,30.36,SSE,155,4.0,11.0,67,0.00,,,0.00,0,weatherlink.com 1.10,2013-01-08 07:04:00,
2013-01-08 02:19:00,39.7,29.0,30.36,SE,132,1.0,10.0,67,0.00,,,0.00,0,weatherlink.com 1.10,2013-01-08 07:19:00,
2013-01-08 02:34:00,39.6,30.0,30.37,SE,137,5.0,10.0,68,0.00,,,0.00,0,weatherlink.com 1.10,2013-01-08 07:34:00,
2013-01-08 02:49:00,39.2,30.0,30.37,South,182,4.0,7.0,69,0.00,,,0.00,0,weatherlink.com 1.10,2013-01-08 07:49:00,
2013-01-08 03:04:00,39.2,30.0,30.36,South,169,6.0,8.0,69,0.00,,,0.00,0,weatherlink.com 1.10,2013-01-08 08:04:00,
2013-01-08 03:19:00,39.2,30.0,30.36,ESE,121,3.0,6.0,69,0.00,,,0.00,0,weatherlink.com 1.10,2013-01-08 08:19:00,
2013-01-08 03:34:00,39.2,30.0,30.34,SSE,156,2.0,11.0,69,0.00,,,0.00,0,weatherlink.com 1.10,2013-01-08 08:34:00,
2013-01-08 03:49:00,39.1,30.0,30.34,ENE,57,0.0,8.0,69,0.00,,,0.00,0,weatherlink.com 1.10,2013-01-08 08:49:00,
2013-01-08 04:04:00,35.6,28.0,30.34,NE,38,1.0,3.0,74,0.00,,,0.00,0,weatherlink.com 1.10,2013-01-08 09:04:00,
2013-01-08 04:19:00,33.2,27.0,30.36,North,355,3.0,4.0,78,0.00,,,0.00,0,weatherlink.com 1.10,2013-01-08 09:19:00,
2013-01-08 04:34:00,31.6,28.0,30.35,NNE,16,1.0,3.0,85,0.00,,,0.00,0,weatherlink.com 1.10,2013-01-08 09:34:00,
2013-01-08 04:49:00,31.6,27.0,30.36,North,9,1.0,3.0,83,0.00,,,0.00,0,weatherlink.com 1.10,2013-01-08 09:49:00,
2013-01-08 05:04:00,31.6,27.0,30.35,NNE,15,2.0,3.0,83,0.00,,,0.00,0,weatherlink.com 1.10,2013-01-08 10:04:00,
2013-01-08 05:19:00,30.5,27.0,30.35,North,360,0.0,3.0,86,0.00,,,0.00,0,weatherlink.com 1.10,2013-01-08 10:19:00,
2013-01-08 05:34:00,30.2,27.0,30.35,North,360,0.0,1.0,87,0.00,,,0.00,0,weatherlink.com 1.10,2013-01-08 10:34:00,
2013-01-08 05:49:00,30.2,27.0,30.35,NW,315,2.0,4.0,88,0.00,,,0.00,0,weatherlink.com 1.10,2013-01-08 10:49:00,
2013-01-08 06:04:00,30.1,28.0,30.35,NNW,348,1.0,4.0,90,0.00,,,0.00,0,weatherlink.com 1.10,2013-01-08 11:04:00,
2013-01-08 06:19:00,30.2,27.0,30.36,NNW,333,3.0,3.0,89,0.00,,,0.00,0,weatherlink.com 1.10,2013-01-08 11:19:00,
2013-01-08 06:34:00,30.9,28.0,30.36,North,9,2.0,3.0,90,0.00,,,0.00,0,weatherlink.com 1.10,2013-01-08 11:34:00,
2013-01-08 06:49:00,30.5,28.0,30.36,East,82,2.0,3.0,89,0.00,,,0.00,0,weatherlink.com 1.10,2013-01-08 11:49:00,
2013-01-08 07:04:00,30.6,28.0,30.36,NE,35,1.0,3.0,89,0.00,,,0.00,0,weatherlink.com 1.10,2013-01-08 12:04:00,
2013-01-08 07:19:00,30.7,28.0,30.37,East,88,2.0,3.0,90,0.00,,,0.00,0,weatherlink.com 1.10,2013-01-08 12:19:00,
2013-01-08 07:34:00,30.9,28.0,30.38,East,88,0.0,1.0,89,0.00,,,0.00,0,weatherlink.com 1.10,2013-01-08 12:34:00,
2013-01-08 07:49:00,30.9,28.0,30.38,East,88,0.0,1.0,89,0.00,,,0.00,5,weatherlink.com 1.10,2013-01-08 12:49:00,
2013-01-08 08:04:00,31.3,29.0,30.38,East,88,0.0,3.0,89,0.00,,,0.00,19,weatherlink.com 1.10,2013-01-08 13:04:00,
2013-01-08 08:19:00,31.5,28.0,30.39,East,88,0.0,0.0,88,0.00,,,0.00,40,weatherlink.com 1.10,2013-01-08 13:19:00,
2013-01-08 08:34:00,31.9,29.0,30.39,NW,318,0.0,3.0,89,0.00,,,0.00,56,weatherlink.com 1.10,2013-01-08 13:34:00,
2013-01-08 08:49:00,32.7,30.0,30.40,NNW,346,1.0,3.0,90,0.00,,,0.00,81,weatherlink.com 1.10,2013-01-08 13:49:00,
2013-01-08 09:04:00,34.0,31.0,30.40,North,11,0.0,2.0,89,0.00,,,0.00,102,weatherlink.com 1.10,2013-01-08 14:04:00,
2013-01-08 09:19:00,35.1,31.0,30.41,SE,132,1.0,2.0,86,0.00,,,0.00,98,weatherlink.com 1.10,2013-01-08 14:19:00,
2013-01-08 09:35:00,36.3,32.0,30.41,ESE,119,1.0,3.0,84,0.00,,,0.00,118,weatherlink.com 1.10,2013-01-08 14:35:00,
2013-01-08 09:50:00,37.4,33.0,30.41,NW,309,0.0,1.0,83,0.00,,,0.00,183,weatherlink.com 1.10,2013-01-08 14:50:00,
2013-01-08 10:05:00,38.8,33.0,30.42,East,91,0.0,2.0,79,0.00,,,0.00,181,weatherlink.com 1.10,2013-01-08 15:05:00,
2013-01-08 10:20:00,40.7,33.0,30.42,WSW,253,2.0,3.0,75,0.00,,,0.00,213,weatherlink.com 1.10,2013-01-08 15:20:00,
2013-01-08 10:35:00,41.9,34.0,30.41,SSW,209,2.0,3.0,74,0.00,,,0.00,264,weatherlink.com 1.10,2013-01-08 15:35:00,
2013-01-08 10:50:00,43.9,35.0,30.41,SW,220,1.0,3.0,72,0.00,,,0.00,348,weatherlink.com 1.10,2013-01-08 15:50:00,
2013-01-08 11:05:00,46.2,37.0,30.41,NNW,336,2.0,4.0,70,0.00,,,0.00,396,weatherlink.com 1.10,2013-01-08 16:05:00,
2013-01-08 11:20:00,47.3,37.0,30.40,SW,234,2.0,4.0,67,0.00,,,0.00,413,weatherlink.com 1.10,2013-01-08 16:20:00,
2013-01-08 11:35:00,49.0,38.0,30.39,SW,232,2.0,3.0,66,0.00,,,0.00,543,weatherlink.com 1.10,2013-01-08 16:35:00,
2013-01-08 11:50:00,51.1,39.0,30.38,SW,215,1.0,4.0,64,0.00,,,0.00,504,weatherlink.com 1.10,2013-01-08 16:50:00,
2013-01-08 12:05:00,52.7,42.0,30.37,SW,225,4.0,5.0,66,0.00,,,0.00,373,weatherlink.com 1.10,2013-01-08 17:05:00,
2013-01-08 12:20:00,54.5,43.0,30.36,South,173,6.0,6.0,65,0.00,,,0.00,550,weatherlink.com 1.10,2013-01-08 17:20:00,
2013-01-08 12:35:00,55.8,44.0,30.36,SSE,158,3.0,7.0,64,0.00,,,0.00,545,weatherlink.com 1.10,2013-01-08 17:35:00,
2013-01-08 12:50:00,55.5,43.0,30.35,East,85,3.0,9.0,64,0.00,,,0.00,443,weatherlink.com 1.10,2013-01-08 17:50:00,
2013-01-08 13:05:00,55.1,43.0,30.33,ESE,114,3.0,11.0,65,0.00,,,0.00,434,weatherlink.com 1.10,2013-01-08 18:05:00,
2013-01-08 13:20:00,56.4,45.0,30.33,SSE,154,7.0,9.0,65,0.00,,,0.00,494,weatherlink.com 1.10,2013-01-08 18:20:00,
2013-01-08 13:35:00,57.1,45.0,30.33,SSE,155,4.0,11.0,64,0.00,,,0.00,497,weatherlink.com 1.10,2013-01-08 18:35:00,
2013-01-08 13:50:00,57.2,44.0,30.33,SSW,201,8.0,12.0,62,0.00,,,0.00,501,weatherlink.com 1.10,2013-01-08 18:50:00,
2013-01-08 14:05:00,57.2,44.0,30.32,South,185,3.0,9.0,62,0.00,,,0.00,563,weatherlink.com 1.10,2013-01-08 19:05:00,
2013-01-08 14:20:00,57.5,44.0,30.32,SE,142,4.0,10.0,62,0.00,,,0.00,519,weatherlink.com 1.10,2013-01-08 19:20:00,
2013-01-08 14:35:00,57.1,44.0,30.33,SE,137,3.0,10.0,62,0.00,,,0.00,487,weatherlink.com 1.10,2013-01-08 19:35:00,
2013-01-08 14:50:00,56.5,44.0,30.34,ESE,114,4.0,8.0,63,0.00,,,0.00,183,weatherlink.com 1.10,2013-01-08 19:50:00,
2013-01-08 15:05:00,55.7,44.0,30.33,ESE,105,5.0,9.0,66,0.00,,,0.00,178,weatherlink.com 1.10,2013-01-08 20:05:00,
2013-01-08 15:20:00,55.6,44.0,30.33,East,94,6.0,8.0,66,0.00,,,0.00,188,weatherlink.com 1.10,2013-01-08 20:20:00,
2013-01-08 15:35:00,55.8,44.0,30.32,South,184,2.0,7.0,66,0.00,,,0.00,204,weatherlink.com 1.10,2013-01-08 20:35:00,
2013-01-08 15:50:00,56.3,45.0,30.32,South,191,2.0,4.0,65,0.00,,,0.00,176,weatherlink.com 1.10,2013-01-08 20:50:00,
2013-01-08 16:05:00,56.0,45.0,30.32,South,178,1.0,6.0,66,0.00,,,0.00,74,weatherlink.com 1.10,2013-01-08 21:05:00,
2013-01-08 16:20:00,55.2,45.0,30.33,ESE,104,1.0,6.0,68,0.00,,,0.00,51,weatherlink.com 1.10,2013-01-08 21:20:00,
2013-01-08 16:35:00,54.8,45.0,30.33,ENE,74,0.0,3.0,70,0.00,,,0.00,56,weatherlink.com 1.10,2013-01-08 21:35:00,
2013-01-08 16:50:00,54.9,46.0,30.32,East,96,1.0,3.0,72,0.00,,,0.00,46,weatherlink.com 1.10,2013-01-08 21:50:00,
2013-01-08 17:06:00,55.8,47.0,30.32,SE,145,0.0,3.0,71,0.00,,,0.00,47,weatherlink.com 1.10,2013-01-08 22:06:00,
2013-01-08 17:21:00,55.3,46.0,30.32,SE,138,2.0,2.0,71,0.00,,,0.00,14,weatherlink.com 1.10,2013-01-08 22:21:00,
2013-01-08 17:36:00,53.2,45.0,30.32,SE,138,0.0,1.0,75,0.00,,,0.00,5,weatherlink.com 1.10,2013-01-08 22:36:00,
2013-01-08 17:51:00,51.2,44.0,30.33,South,178,0.0,2.0,77,0.00,,,0.00,0,weatherlink.com 1.10,2013-01-08 22:51:00,
2013-01-08 18:06:00,49.4,42.0,30.33,South,178,0.0,0.0,77,0.00,,,0.00,0,weatherlink.com 1.10,2013-01-08 23:06:00,
2013-01-08 18:21:00,48.3,42.0,30.33,ESE,113,0.0,2.0,80,0.00,,,0.00,0,weatherlink.com 1.10,2013-01-08 23:21:00,
2013-01-08 18:36:00,48.2,43.0,30.34,ESE,109,0.0,2.0,81,0.00,,,0.00,0,weatherlink.com 1.10,2013-01-08 23:36:00,
2013-01-08 18:51:00,48.4,43.0,30.34,SE,135,1.0,4.0,81,0.00,,,0.00,0,weatherlink.com 1.10,2013-01-08 23:51:00,
2013-01-08 19:06:00,49.8,44.0,30.35,SE,125,1.0,5.0,79,0.00,,,0.00,0,weatherlink.com 1.10,2013-01-09 00:06:00,
2013-01-08 19:21:00,47.9,42.0,30.36,SE,138,0.0,3.0,79,0.00,,,0.00,0,weatherlink.com 1.10,2013-01-09 00:21:00,
2013-01-08 19:36:00,46.0,41.0,30.36,SE,138,0.0,2.0,84,0.00,,,0.00,0,weatherlink.com 1.10,2013-01-09 00:36:00,
2013-01-08 19:51:00,44.7,40.0,30.35,NNE,17,1.0,3.0,83,0.00,,,0.00,0,weatherlink.com 1.10,2013-01-09 00:51:00,
2013-01-08 20:06:00,43.3,40.0,30.35,NNE,16,0.0,2.0,87,0.00,,,0.00,0,weatherlink.com 1.10,2013-01-09 01:06:00,
2013-01-08 20:21:00,42.7,40.0,30.35,NNE,17,0.0,2.0,91,0.00,,,0.00,0,weatherlink.com 1.10,2013-01-09 01:21:00,
2013-01-08 20:36:00,41.1,38.0,30.34,North,9,0.0,0.0,90,0.00,,,0.00,0,weatherlink.com 1.10,2013-01-09 01:36:00,
2013-01-08 20:51:00,40.8,38.0,30.35,North,9,0.0,1.0,91,0.00,,,0.00,0,weatherlink.com 1.10,2013-01-09 01:51:00,
2013-01-08 21:06:00,40.3,38.0,30.36,ENE,61,0.0,0.0,91,0.00,,,0.00,0,weatherlink.com 1.10,2013-01-09 02:06:00,
2013-01-08 21:21:00,40.3,39.0,30.36,NE,40,2.0,3.0,94,0.00,,,0.00,0,weatherlink.com 1.10,2013-01-09 02:21:00,
2013-01-08 21:36:00,39.8,38.0,30.37,East,93,1.0,3.0,93,0.00,,,0.00,0,weatherlink.com 1.10,2013-01-09 02:36:00,
2013-01-08 21:51:00,39.2,37.0,30.37,East,93,0.0,0.0,93,0.00,,,0.00,0,weatherlink.com 1.10,2013-01-09 02:51:00,
2013-01-08 22:06:00,40.1,39.0,30.37,East,93,0.0,0.0,95,0.00,,,0.00,0,weatherlink.com 1.10,2013-01-09 03:06:00,
2013-01-08 22:21:00,41.1,40.0,30.37,East,93,0.0,2.0,95,0.00,,,0.00,0,weatherlink.com 1.10,2013-01-09 03:21:00,
2013-01-08 22:36:00,42.2,41.0,30.37,North,350,0.0,3.0,95,0.00,,,0.00,0,weatherlink.com 1.10,2013-01-09 03:36:00,
2013-01-08 22:51:00,42.7,41.0,30.37,North,350,0.0,0.0,94,0.00,,,0.00,0,weatherlink.com 1.10,2013-01-09 03:51:00,
2013-01-08 23:06:00,42.8,41.0,30.36,North,350,0.0,1.0,94,0.00,,,0.00,0,weatherlink.com 1.10,2013-01-09 04:06:00,
2013-01-08 23:21:00,43.0,41.0,30.37,North,350,0.0,0.0,94,0.00,,,0.00,0,weatherlink.com 1.10,2013-01-09 04:21:00,
2013-01-08 23:36:00,43.5,42.0,30.36,North,350,0.0,0.0,94,0.00,,,0.00,0,weatherlink.com 1.10,2013-01-09 04:36:00,
2013-01-08 23:51:00,44.2,43.0,30.37,NE,55,0.0,1.0,94,0.00,,,0.00,0,weatherlink.com 1.10,2013-01-09 04:51:00,